Wind_Speed
14 14 15 14 13 12 10 10 10 9 8 7 6 6 5 3 2 2 3 2 3 2 2 2 1 1 1 2 2 3 3 3 4 5 5 6 6 7 7 7 7 7
12 13 14 14 13 12 11 10 10 10 9 7 7 7 6 5 4 3 4 3 1 1 1 1 1 2 2 1 0 2 2 3 3 4 4 5 6 7 6 5 6 6
10 11 12 12 12 12 11 11 11 11 10 8 7 7 7 6 5 5 5 5 3 2 2 2 1 2 2 3 2 1 1 1 2 3 3 3 4 5 5 6 6 6
8 9 10 10 10 11 11 12 12 12 11 10 8 7 7 7 6 7 7 5 3 4 4 3 2 2 3 4 3 3 3 2 1 1 2 1 1 2 2 4 6 6
7 7 8 8 9 10 11 13 14 13 13 12 9 7 7 7 7 8 8 6 5 4 5 4 3 4 5 6 6 6 6 5 4 3 3 2 2 3 2 3 5 5
8 8 8 8 9 10 12 14 14 15 14 13 11 8 7 7 7 8 7 7 7 6 5 5 2 3 5 7 8 8 8 7 5 5 5 5 4 4 3 4 3 3
9 9 9 9 10 11 13 14 15 15 14 13 12 10 9 8 7 8 8 7 9 8 6 4 3 3 4 6 8 9 8 6 4 4 5 6 6 5 4 4 5 4
10 10 10 10 11 11 12 13 14 14 13 13 13 12 11 10 8 8 8 7 8 10 9 7 5 5 5 5 7 8 8 5 2 3 4 5 7 7 7 6 6 6
11 11 11 11 12 12 12 12 13 13 13 14 14 12 12 12 10 8 8 7 7 9 10 10 8 6 6 6 7 9 10 7 3 3 3 4 6 7 7 7 7 6
12 12 12 13 13 13 13 12 12 12 13 14 14 12 11 12 11 9 8 7 7 7 9 11 10 8 7 8 9 10 11 8 5 4 3 4 6 7 7 7 8 7
11 12 13 14 15 15 14 13 12 12 12 13 13 11 10 12 12 10 8 8 8 9 10 11 10 7 6 8 10 11 10 8 7 5 4 4 5 7 7 6 7 8
8 8 9 11 12 12 12 12 12 12 11 11 11 10 9 11 12 11 10 10 10 11 11 11 10 8 7 7 9 10 10 9 8 7 6 5 5 6 6 6 5 6
8 8 7 7 8 9 8 8 10 10 10 10 10 10 10 11 12 12 12 13 12 11 10 10 9 9 9 9 9 9 10 10 9 8 6 6 5 6 6 7 6 5
9 9 9 9 9 9 8 7 8 9 8 8 9 10 10 11 12 12 12 13 13 12 12 11 9 8 10 11 11 10 10 11 11 9 7 6 5 6 6 6 7 6
8 10 12 11 10 10 9 8 8 9 8 9 9 10 11 11 13 13 13 13 13 13 12 11 9 8 8 10 12 12 13 13 12 10 8 7 6 6 7 6 8 8
9 11 12 14 14 13 12 11 10 10 10 10 12 12 12 13 14 15 16 15 14 14 12 11 10 9 8 8 10 13 14 14 13 11 9 8 8 7 7 6 7 10
10 11 11 14 16 16 15 14 13 12 12 13 13 14 15 15 15 16 17 17 16 16 14 13 13 12 11 10 10 11 13 14 13 12 10 9 9 8 8 7 6 9
11 12 12 14 17 18 18 17 16 15 15 15 16 16 16 17 18 19 19 19 18 18 17 17 16 15 14 13 12 12 13 14 14 13 11 10 10 9 9 8 7 7
12 12 13 15 17 19 20 20 19 19 18 18 19 19 19 20 21 22 21 21 20 20 20 19 18 17 16 16 16 15 15 15 14 14 13 12 11 11 10 8 7 6
14 14 15 17 18 18 20 21 21 22 22 22 22 22 22 23 24 25 24 23 23 23 22 22 20 19 19 18 18 17 17 16 16 16 15 14 13 12 10 8 7 7
19 18 18 20 20 21 21 21 22 23 23 24 24 25 25 25 25 26 26 26 26 25 24 24 22 21 21 20 20 19 19 18 18 18 17 17 15 14 12 10 7 8
22 22 22 22 23 23 22 22 22 23 23 24 25 26 26 26 27 27 27 27 26 26 26 26 24 23 22 22 21 21 21 20 20 20 20 19 18 16 14 12 9 10
23 24 25 25 25 25 25 24 23 24 24 24 23 24 26 27 28 28 28 28 27 27 27 27 26 24 23 23 23 23 23 23 23 23 23 22 21 18 16 15 13 11
24 25 26 26 27 28 29 29 27 26 26 25 24 24 24 25 26 26 26 27 28 28 28 28 28 27 25 25 25 24 25 26 26 26 26 25 24 21 19 18 16 13
24 25 26 26 27 27 28 29 29 28 28 27 26 25 24 23 23 22 22 23 25 27 28 29 30 29 27 26 27 26 27 27 28 28 28 27 26 24 21 20 19 17
26 26 26 26 25 25 24 24 25 26 27 27 27 27 26 24 22 21 21 22 22 23 24 26 28 28 27 27 27 27 27 28 29 30 30 30 29 27 25 22 21 19
Wind_Direction
254 256 257 260 268 269 266 258 248 251 256 252 250 243 232 221 195 194 202 153 87 111 119 75 97 158 93 43 17 22 25 29 47 49 46 50 42 32 34 36 31 17
251 252 254 257 262 260 256 251 242 244 253 256 256 253 249 240 225 230 226 207 181 174 177 45 98 160 187 198 333 7 9 16 42 47 43 53 47 31 25 20 17 14
244 245 249 252 252 250 249 245 238 241 248 249 249 247 250 253 244 246 237 219 237 256 239 269 252 176 203 212 222 257 298 357 41 52 46 61 54 32 24 8 355 0
236 239 243 244 245 245 243 238 234 236 241 246 252 250 250 255 248 242 231 214 230 252 245 250 264 262 236 221 230 244 251 278 294 32 15 15 359 347 10 4 349 350
228 233 237 238 240 242 239 236 236 237 239 243 250 249 243 244 242 238 232 222 225 243 242 235 263 291 257 238 247 250 252 267 268 267 291 304 313 308 319 337 334 338
229 234 237 238 241 244 241 239 239 239 240 244 249 250 239 234 238 239 246 245 232 232 235 217 235 298 267 249 252 252 257 269 272 269 273 276 282 290 306 319 313 323
233 236 237 240 244 246 245 245 244 241 243 246 247 250 243 238 241 243 254 255 232 228 233 217 223 272 260 248 247 247 251 257 261 263 263 260 260 264 272 291 299 298
237 239 239 240 241 245 248 248 244 243 246 244 240 246 243 238 245 245 248 254 236 232 242 248 251 251 247 243 238 233 225 221 242 270 269 256 247 251 259 275 300 303
244 243 242 242 242 246 250 250 246 246 248 243 242 249 240 234 246 251 248 255 252 243 246 254 263 267 259 240 226 216 209 215 256 268 275 276 256 253 264 276 291 299
253 252 249 247 247 250 252 254 254 252 250 247 248 251 240 234 244 251 251 254 257 256 256 260 267 272 256 232 222 216 214 229 262 253 258 287 279 272 272 279 282 277
256 255 252 252 254 257 257 257 257 256 254 250 249 251 243 235 238 246 252 251 253 260 265 269 269 260 238 226 225 221 224 245 262 252 255 281 296 291 278 276 275 265
246 242 243 252 258 258 256 254 253 254 252 249 248 248 242 234 235 243 247 247 253 261 266 274 276 261 241 231 227 226 236 253 257 250 260 285 315 311 284 267 259 262
247 236 234 249 251 242 244 248 244 239 241 244 242 238 233 230 234 242 247 247 252 261 267 278 288 273 250 240 237 239 248 256 253 250 265 290 320 326 296 264 251 262
255 242 240 247 241 236 250 260 243 231 233 233 228 226 225 226 231 239 245 243 245 255 262 266 280 278 260 250 246 247 257 258 251 252 267 287 310 328 317 271 249 251
258 249 244 240 237 239 252 257 242 230 226 218 216 220 222 225 231 234 237 238 243 253 256 254 263 274 272 265 255 254 260 258 251 255 269 284 300 322 330 295 252 244
263 261 248 238 239 247 250 248 238 227 223 221 222 225 227 229 232 232 234 241 246 249 249 249 256 262 265 267 261 260 261 255 252 259 267 282 296 309 327 316 262 243
260 264 255 243 243 249 250 247 240 231 228 231 232 233 234 233 234 235 238 245 249 249 247 248 254 257 257 260 256 253 254 251 252 259 265 276 288 296 313 320 281 249
251 258 260 254 249 249 249 248 245 239 235 236 238 240 241 238 238 241 244 247 249 249 249 249 253 256 256 258 256 252 253 254 254 256 261 269 279 290 304 312 298 268
249 257 261 262 258 254 250 248 246 244 242 242 243 244 245 244 244 246 249 250 250 250 251 252 253 254 253 254 257 258 257 257 256 256 258 262 271 283 294 301 299 277
253 258 257 259 261 257 251 247 246 247 248 249 248 247 247 247 248 249 250 251 252 252 254 254 254 253 253 254 256 258 257 255 255 257 256 259 266 273 281 291 285 258
254 256 254 256 259 259 253 248 248 251 253 253 251 249 250 251 252 252 252 252 253 253 254 255 256 255 254 254 256 258 256 253 254 255 254 256 261 264 268 276 271 248
254 254 253 253 255 256 254 252 251 252 254 255 254 252 252 253 254 254 255 255 255 255 254 255 259 259 256 255 257 259 257 253 252 253 252 253 257 260 263 266 263 251
256 257 258 257 254 250 249 253 253 251 253 256 255 252 251 252 253 255 255 256 257 257 256 256 260 262 259 257 257 258 256 253 250 250 251 252 255 257 260 261 259 253
258 259 261 261 258 253 251 254 254 253 255 256 255 254 253 253 255 257 257 258 257 258 258 258 262 264 262 260 260 258 255 253 251 249 249 251 253 254 256 257 258 255
258 259 260 262 262 261 259 257 256 255 256 257 256 254 253 253 254 254 257 260 260 261 261 260 263 266 264 262 262 261 256 253 251 249 247 249 252 252 253 255 257 255
257 257 258 259 260 261 260 258 255 255 256 256 254 249 248 249 249 249 255 261 263 264 265 264 266 268 267 265 264 263 260 256 251 248 247 249 251 251 252 254 256 256
Height
811 812 812 813 813 813 813 813 813 813 814 814 814 814 814 815 815 815 815 815 814 814 813 813 812 813 813 812 812 811 811 810 810 809 809 808 808 808 807 807 806 806
810 810 811 811 811 812 812 812 812 812 813 813 814 814 814 814 814 814 814 814 814 814 813 813 812 813 813 812 811 811 811 810 809 809 809 808 808 808 807 807 806 806
808 808 809 809 809 810 810 810 811 811 812 813 813 813 813 814 814 814 814 814 814 813 813 812 812 812 812 812 811 811 810 810 809 809 809 808 808 807 807 807 806 805
806 807 807 807 808 808 809 809 810 810 811 811 812 812 812 813 813 813 813 813 813 813 812 812 812 812 812 812 811 811 810 809 809 809 808 808 807 807 806 806 806 805
805 805 805 806 806 806 807 807 808 809 809 810 810 811 811 812 812 812 813 813 813 812 812 812 812 811 811 811 811 810 810 809 809 809 808 808 807 807 806 806 805 805
804 804 804 805 805 805 806 806 806 807 807 808 809 809 810 811 811 812 812 812 812 811 811 811 811 811 810 810 810 810 809 809 809 808 808 807 807 807 806 805 805 804
803 803 803 803 804 804 804 804 805 805 806 807 807 808 809 809 810 810 811 811 810 810 810 810 809 809 809 809 809 809 809 808 808 807 807 806 806 806 805 805 804 803
802 802 802 802 803 803 803 803 803 804 804 805 806 806 807 807 808 809 809 809 809 809 809 808 808 808 807 807 807 808 807 807 807 806 806 805 805 805 804 804 803 802
801 801 801 801 801 801 802 802 802 802 803 803 804 804 805 806 806 807 807 808 808 808 808 807 807 807 806 806 806 806 806 806 805 805 805 804 804 803 803 803 802 802
799 800 800 800 800 800 800 801 801 801 801 802 802 802 803 804 805 805 806 806 806 806 806 806 806 805 805 805 804 804 805 804 804 804 803 803 803 803 802 802 801 801
798 798 799 799 799 799 799 800 800 800 800 800 801 801 802 802 803 804 804 804 804 804 804 804 804 804 803 803 803 803 803 803 803 802 802 802 802 801 801 800 800 800
797 797 797 798 798 798 798 799 798 799 799 799 799 800 800 801 801 802 802 803 803 803 803 802 802 802 802 802 802 801 802 802 801 801 801 801 800 800 799 799 799 798
796 796 796 796 797 797 797 797 797 797 797 797 798 798 798 799 799 800 800 800 801 801 801 801 801 801 801 800 800 800 800 800 800 799 799 799 799 798 798 797 797 797
794 795 795 795 795 795 796 795 795 796 796 796 796 796 797 797 797 798 798 798 799 799 799 799 799 799 799 798 798 798 798 798 798 798 798 797 797 796 796 796 796 795
794 794 794 794 794 794 794 794 794 794 794 794 794 794 795 795 795 795 796 796 796 797 797 797 797 796 796 796 796 796 796 796 796 796 796 796 795 795 794 794 794 794
792 793 793 793 793 793 793 793 793 793 793 793 793 793 793 793 793 793 793 794 794 794 795 794 794 794 794 794 794 794 795 795 795 795 794 794 793 793 793 792 792 792
791 791 791 792 791 791 791 791 792 792 792 792 792 791 791 791 791 791 791 791 791 792 792 792 792 792 792 792 792 792 792 792 792 792 792 792 792 791 791 791 790 791
790 790 790 790 789 789 789 789 790 790 790 790 790 789 789 789 789 789 789 789 789 789 789 789 789 790 790 790 790 790 790 790 790 790 790 790 789 789 789 789 789 789
788 788 788 788 787 787 787 787 788 788 787 787 787 787 787 787 787 787 786 787 786 786 786 786 787 787 787 787 787 787 787 787 788 788 788 787 787 787 787 787 787 787
786 786 785 785 785 785 785 785 785 785 785 785 785 785 785 784 784 784 784 784 784 784 783 783 784 784 784 784 784 784 785 785 785 785 785 785 785 785 785 785 785 785
783 783 783 783 783 783 782 782 782 782 782 782 782 782 782 782 781 781 781 781 781 781 781 781 781 781 782 782 782 782 782 782 782 783 783 783 783 783 782 782 782 783
780 780 780 780 780 780 780 779 779 779 779 779 779 779 779 779 779 779 778 778 778 778 778 778 778 778 779 779 779 779 779 780 780 780 780 780 780 780 780 780 780 780
777 777 776 776 776 776 776 776 776 776 776 776 776 776 776 776 775 775 775 775 775 775 775 774 774 775 775 775 776 776 776 776 776 776 776 776 777 777 777 778 778 778
773 773 772 772 772 772 772 772 772 773 773 773 773 773 772 772 772 771 771 771 771 771 771 771 770 771 772 772 772 773 773 773 773 773 773 773 773 774 774 775 775 775
769 769 769 769 768 768 768 768 769 769 769 769 769 769 769 769 769 768 768 767 767 768 768 768 767 767 768 769 769 769 769 769 770 770 769 769 770 770 771 771 772 772
765 765 765 765 765 764 764 764 765 765 765 765 765 765 765 765 765 765 764 764 764 764 764 764 764 763 764 765 765 766 766 766 766 766 766 766 766 767 767 767 768 769